Powrót do katalogu

SL-16 DEB

AktywnyLEO
NORAD 22454·DEBRIS·🇷🇺 Russia

Wystrzelony Dec 25, 1992 z Baikonur Cosmodrome

Loading…

Następne Przeloty (najbliższe 24 godziny)

TLE

ŚwieżeSource: Space-Track

Epoka: Sep 13, 2026, 22:08 UTC

1 22454U 92093ET  26256.92227852  .00000178  00000-0  14509-3 0  9996
2 22454  70.9152 223.3584 0103310  39.6756 321.1857 14.00024624717391

Śledź SL-16 DEB w czasie rzeczywistym z AllMySat

Download on the App Store